• In Austria
  • List of Countries
  • For 7 days
  • Water Temperature
  • Satellite Maps
  • Weather Map
  • News
  • Weather Widgets
  • user-avatar
    Login

    Hourly Weather Bregenz

    Today, 12 December, Tuesday

    Time Temperature Precipitation Wind Pressure Humidity
    00:00 -2°C° 1.8 mm 3 mps 628 mmHg 94%
    01:00 -2°C° 0 mm 3 mps 629 mmHg 92%
    02:00 -4°C° 1 mm 3 mps 630 mmHg 93%
    03:00 -4°C° 1 mm 3 mps 630 mmHg 93%
    04:00 -4°C° 1 mm 3 mps 631 mmHg 93%
    05:00 -4°C° 0.9 mm 3 mps 632 mmHg 94%
    06:00 -5°C° 0.9 mm 3 mps 633 mmHg 94%
    07:00 -5°C° 0 mm 3 mps 634 mmHg 94%
    08:00 -6°C° 0.4 mm 3 mps 635 mmHg 94%
    09:00 -6°C° 0.4 mm 3 mps 636 mmHg 93%
    10:00 -6°C° 0.4 mm 3 mps 637 mmHg 92%
    11:00 -6°C° 0.3 mm 3 mps 637 mmHg 92%
    12:00 -6°C° 0.3 mm 3 mps 638 mmHg 91%
    13:00 -6°C° 0 mm 3 mps 639 mmHg 92%
    14:00 -6°C° 0.4 mm 3 mps 639 mmHg 93%
    15:00 -5°C° 0.4 mm 2 mps 639 mmHg 93%
    16:00 -5°C° 0.4 mm 2 mps 640 mmHg 93%
    17:00 -6°C° 0.2 mm 2 mps 640 mmHg 93%
    18:00 -7°C° 0.2 mm 2 mps 641 mmHg 93%
    19:00 -7°C° 0.2 mm 2 mps 641 mmHg 94%
    20:00 -7°C° 0.1 mm 1 mps 642 mmHg 93%
    21:00 -7°C° 0.1 mm 1 mps 642 mmHg 93%
    22:00 -7°C° 0.1 mm 1 mps 642 mmHg 93%
    23:00 -8°C° 0 mm 1 mps 643 mmHg 92%

    Tomorrow, 13 December, Wednesday

    Time Temperature Precipitation Wind Pressure Humidity
    00:00 -10°C° 0 mm 2 mps 643 mmHg 92%
    01:00 -10°C° 0 mm 2 mps 643 mmHg 91%
    02:00 -12°C° 0 mm 2 mps 643 mmHg 89%
    03:00 -12°C° 0 mm 2 mps 643 mmHg 87%
    04:00 -13°C° 0 mm 2 mps 642 mmHg 86%
    05:00 -13°C° 0 mm 2 mps 643 mmHg 83%
    06:00 -13°C° 0 mm 2 mps 643 mmHg 81%
    07:00 -13°C° 0 mm 2 mps 643 mmHg 78%
    08:00 -12°C° 0 mm 2 mps 643 mmHg 76%
    09:00 -9°C° 0 mm 2 mps 643 mmHg 74%
    10:00 -8°C° 0 mm 2 mps 643 mmHg 72%
    11:00 -7°C° 0 mm 2 mps 643 mmHg 71%
    12:00 -5°C° 0 mm 2 mps 642 mmHg 70%
    13:00 -3°C° 0 mm 2 mps 642 mmHg 68%
    14:00 -4°C° 0 mm 2 mps 641 mmHg 69%
    15:00 -4°C° 0 mm 2 mps 641 mmHg 71%
    16:00 -6°C° 0 mm 3 mps 640 mmHg 72%
    17:00 -6°C° 0.1 mm 3 mps 640 mmHg 72%
    18:00 -6°C° 0.1 mm 3 mps 639 mmHg 73%
    19:00 -6°C° 0.1 mm 3 mps 639 mmHg 74%
    20:00 -7°C° 0.2 mm 4 mps 639 mmHg 73%
    21:00 -7°C° 0.2 mm 4 mps 638 mmHg 72%
    22:00 -7°C° 0.2 mm 4 mps 637 mmHg 71%
    23:00 -6°C° 0.3 mm 5 mps 637 mmHg 73%

    Day after tomorrow, 14 December, Thursday

    Time Temperature Precipitation Wind Pressure Humidity
    00:00 -6°C° 0.3 mm 5 mps 637 mmHg 74%
    01:00 -6°C° 0.3 mm 5 mps 636 mmHg 76%
    02:00 -5°C° 0.3 mm 6 mps 637 mmHg 78%
    03:00 -5°C° 0.3 mm 6 mps 637 mmHg 80%
    04:00 -4°C° 0.3 mm 6 mps 637 mmHg 82%
    05:00 -5°C° 0.6 mm 6 mps 637 mmHg 84%
    06:00 -5°C° 0.6 mm 6 mps 638 mmHg 87%
    07:00 -5°C° 0.6 mm 6 mps 638 mmHg 89%
    08:00 -5°C° 0.6 mm 5 mps 638 mmHg 90%
    09:00 -4°C° 0.6 mm 4 mps 638 mmHg 91%
    10:00 -4°C° 0.6 mm 3 mps 638 mmHg 92%
    11:00 -2°C° 0.4 mm 3 mps 638 mmHg 92%
    12:00 -2°C° 0.4 mm 3 mps 638 mmHg 92%
    13:00 -2°C° 0.4 mm 3 mps 637 mmHg 92%
    14:00 -2°C° 0.2 mm 3 mps 637 mmHg 91%
    15:00 -3°C° 0.2 mm 2 mps 636 mmHg 90%
    16:00 -3°C° 0.2 mm 2 mps 635 mmHg 88%
    17:00 -5°C° 0.1 mm 3 mps 635 mmHg 86%
    18:00 -5°C° 0.1 mm 3 mps 634 mmHg 83%
    19:00 -7°C° 0.1 mm 4 mps 634 mmHg 81%
    20:00 -7°C° 0 mm 4 mps 633 mmHg 79%
    21:00 -7°C° 0 mm 4 mps 632 mmHg 77%
    22:00 -7°C° 0 mm 4 mps 632 mmHg 75%
    23:00 -6°C° 0.4 mm 5 mps 632 mmHg 76%

    15 December, Friday

    Time Temperature Precipitation Wind Pressure Humidity
    00:00 -6°C° 0.4 mm 5 mps 632 mmHg 78%
    01:00 -5°C° 0.4 mm 5 mps 632 mmHg 79%
    02:00 -6°C° 1.7 mm 5 mps 632 mmHg 84%
    03:00 -6°C° 1.7 mm 5 mps 632 mmHg 89%
    04:00 -7°C° 1.7 mm 4 mps 632 mmHg 93%
    05:00 -7°C° 0.7 mm 4 mps 632 mmHg 93%
    06:00 -7°C° 0.7 mm 3 mps 632 mmHg 93%
    07:00 -7°C° 0.7 mm 3 mps 632 mmHg 93%
    08:00 -7°C° 0.1 mm 3 mps 632 mmHg 92%
    09:00 -7°C° 0.1 mm 3 mps 633 mmHg 91%
    10:00 -6°C° 0.1 mm 3 mps 633 mmHg 90%
    11:00 -6°C° 0 mm 3 mps 633 mmHg 88%
    12:00 -5°C° 0 mm 3 mps 633 mmHg 86%
    13:00 -5°C° 0 mm 3 mps 633 mmHg 85%
    14:00 -5°C° 0 mm 3 mps 633 mmHg 86%
    15:00 -6°C° 0 mm 3 mps 632 mmHg 87%
    16:00 -6°C° 0 mm 2 mps 632 mmHg 87%
    17:00 -6°C° 0.1 mm 2 mps 632 mmHg 87%
    18:00 -8°C° 0.1 mm 3 mps 633 mmHg 86%
    19:00 -8°C° 0.1 mm 3 mps 633 mmHg 85%
    20:00 -8°C° 0.4 mm 3 mps 634 mmHg 87%
    21:00 -8°C° 0.4 mm 3 mps 634 mmHg 90%
    22:00 -7°C° 0.4 mm 3 mps 635 mmHg 92%
    23:00 -8°C° 0.4 mm 3 mps 635 mmHg 92%

    16 December, Saturday

    Time Temperature Precipitation Wind Pressure Humidity
    00:00 -8°C° 0.4 mm 3 mps 636 mmHg 92%
    01:00 -8°C° 0.4 mm 3 mps 636 mmHg 92%
    02:00 -7°C° 0.2 mm 2 mps 637 mmHg 92%
    03:00 -8°C° 0.2 mm 2 mps 637 mmHg 92%
    04:00 -8°C° 0.2 mm 2 mps 637 mmHg 92%
    05:00 -8°C° 0 mm 2 mps 638 mmHg 91%
    06:00 -8°C° 0 mm 2 mps 638 mmHg 90%
    07:00 -9°C° 0 mm 2 mps 638 mmHg 89%
    08:00 -8°C° 0 mm 2 mps 639 mmHg 88%
    09:00 -8°C° 0 mm 2 mps 639 mmHg 87%
    10:00 -7°C° 0 mm 2 mps 640 mmHg 86%
    11:00 -7°C° 0 mm 2 mps 640 mmHg 85%
    12:00 -6°C° 0 mm 2 mps 640 mmHg 84%
    13:00 -5°C° 0 mm 2 mps 640 mmHg 83%
    14:00 -5°C° 0 mm 2 mps 640 mmHg 86%
    15:00 -6°C° 0 mm 2 mps 640 mmHg 88%
    16:00 -7°C° 0 mm 2 mps 640 mmHg 91%
    17:00 -7°C° 0 mm 2 mps 641 mmHg 91%
    18:00 -8°C° 0 mm 2 mps 641 mmHg 92%
    19:00 -8°C° 0 mm 2 mps 642 mmHg 93%
    20:00 -8°C° 0.2 mm 2 mps 642 mmHg 93%
    21:00 -8°C° 0.2 mm 2 mps 642 mmHg 93%
    22:00 -8°C° 0.2 mm 2 mps 643 mmHg 93%
    23:00 -9°C° 0.3 mm 2 mps 643 mmHg 93%

    17 December, Sunday

    Time Temperature Precipitation Wind Pressure Humidity
    00:00 -9°C° 0.3 mm 2 mps 643 mmHg 93%
    01:00 -9°C° 0.3 mm 2 mps 644 mmHg 94%
    02:00 -9°C° 0.2 mm 2 mps 644 mmHg 94%
    03:00 -8°C° 0.2 mm 1 mps 644 mmHg 95%
    04:00 -8°C° 0.2 mm 1 mps 644 mmHg 95%
    05:00 -8°C° 0.1 mm 1 mps 645 mmHg 95%
    06:00 -8°C° 0.1 mm 1 mps 645 mmHg 96%
    07:00 -9°C° 0.1 mm 1 mps 645 mmHg 96%
    08:00 -8°C° 0.1 mm 1 mps 646 mmHg 95%
    09:00 -9°C° 0.1 mm 2 mps 646 mmHg 94%
    10:00 -8°C° 0.1 mm 2 mps 647 mmHg 93%
    11:00 -8°C° 0.2 mm 2 mps 647 mmHg 92%
    12:00 -7°C° 0.2 mm 2 mps 647 mmHg 90%
    13:00 -7°C° 0.2 mm 2 mps 647 mmHg 89%
    14:00 -7°C° 0.1 mm 2 mps 648 mmHg 91%
    15:00 -6°C° 0.1 mm 1 mps 648 mmHg 92%
    16:00 -7°C° 0.1 mm 1 mps 648 mmHg 94%
    17:00 -7°C° 0.1 mm 1 mps 649 mmHg 94%
    18:00 -8°C° 0.1 mm 1 mps 649 mmHg 94%
    19:00 -9°C° 0.1 mm 1 mps 649 mmHg 95%
    20:00 -9°C° 0 mm 1 mps 650 mmHg 93%
    21:00 -10°C° 0 mm 1 mps 650 mmHg 92%
    22:00 -13°C° 0 mm 2 mps 650 mmHg 91%
    23:00 -13°C° 0 mm 2 mps 650 mmHg 90%
    Show more